Tracking 30744 objects as of 24-Jun-2025
HD Live streaming from Space Station
objects crossing your sky now

STARLINK-30269

Track STARLINK-30269 now!
10-day predictions
STARLINK-30269 is classified as:


NORAD ID: 57528
Int'l Code: 2023-115H
Perigee: 565.3 km
Apogee: 567.1 km
Inclination: 43.0 °
Period: 95.8 minutes
Semi major axis: 6937 km
RCS: Unknown
Launch date: August 8, 2023
Source: United States (US)
Launch site: AIR FORCE WESTERN TEST RANGE (AFWTR)
Your satellite tracking list
Your tracking list is empty




NASA's NSSDC Master Catalog

Two Line Element Set (TLE):
1 57528U 23115H   25174.80654459  .00000029  00000-0  17249-4 0  9997
2 57528  43.0045 331.2855 0001270 270.3532  89.7165 15.02539828103377
Source of the keplerian elements: AFSPC